CW0351 Weather Reports


Display with metric or nautical units.
time (UTC)temp
F
wind
direction
speed
MPH
gust
MPH
rain 1hr
in
rain 24hr
in
rain mn
in
humidity
%
barometer
mb
20180118114204 16 183 0.0 0.0 0.00 0.00 0.00 81 1032.6
20180118113204 16 183 0.0 0.0 0.00 0.00 0.00 82 1032.6
20180118112204 16 183 0.0 0.0 0.00 0.00 0.00 82 1032.5
20180118111203 16 183 0.0 0.0 0.00 0.00 0.00 80 1032.5
20180118110204 16 183 0.0 0.0 0.00 0.00 0.00 80 1032.3
20180118105203 16 183 0.0 0.0 0.00 0.00 0.00 80 1032.3
20180118104233 16 183 0.0 0.0 0.00 0.00 0.00 77 1032.4
20180118103203 16 183 0.0 0.0 0.00 0.00 0.00 76 1032.4
20180118102204 17 183 0.0 0.0 0.00 0.00 0.00 76 1032.5
20180118101203 17 183 0.0 0.0 0.00 0.00 0.00 75 1032.6
20180118100205 17 183 0.0 0.0 0.00 0.00 0.00 75 1032.5
20180118095203 17 183 0.0 0.0 0.00 0.00 0.00 73 1032.7
20180118094203 18 183 0.0 0.0 0.00 0.00 0.00 72 1033.0
20180118093203 18 183 0.0 0.0 0.00 0.00 0.00 72 1033.1
20180118092203 18 183 0.0 0.0 0.00 0.00 0.00 72 1033.1
20180118091203 19 183 0.0 0.0 0.00 0.00 0.00 72 1033.3
20180118090234 19 183 0.0 0.0 0.00 0.00 0.00 73 1033.3
20180118085203 19 183 0.0 0.0 0.00 0.00 0.00 73 1033.2
20180118084203 19 183 0.0 0.0 0.00 0.00 0.00 73 1033.5
20180118083204 19 183 0.0 0.0 0.00 0.00 0.00 73 1033.5
20180118082203 19 183 0.0 0.0 0.00 0.00 0.00 74 1033.7
20180118081204 19 176 0.0 0.0 0.00 0.00 0.00 75 1033.8
20180118080204 19 167 0.0 0.0 0.00 0.00 0.00 77 1034.0
20180118075234 18 167 0.0 0.0 0.00 0.00 0.00 78 1033.9
20180118074204 18 167 0.0 0.0 0.00 0.00 0.00 78 1033.9
20180118073204 18 168 0.0 0.0 0.00 0.00 0.00 78 1033.9
20180118072204 19 167 0.0 0.0 0.00 0.00 0.00 79 1034.1
20180118071204 19 167 0.0 0.0 0.00 0.00 0.00 79 1034.1
20180118070204 19 168 0.0 0.0 0.00 0.00 0.00 79 1034.3
20180118065204 19 167 0.0 0.0 0.00 0.00 0.00 79 1034.3
20180118064204 19 168 0.0 0.0 0.00 0.00 0.00 79 1034.3
20180118063204 19 167 0.0 0.0 0.00 0.00 0.00 79 1034.2
20180118062235 19 167 0.0 0.0 0.00 0.00 0.00 78 1034.3
20180118061204 19 167 0.0 0.0 0.00 0.00 0.00 77 1034.4
20180118060204 19 167 0.0 0.0 0.00 0.00 0.00 76 1034.6
20180118055204 19 167 0.0 0.0 0.00 0.00 0.00 76 1034.5
20180118054204 20 167 0.0 0.0 0.00 0.00 0.00 75 1034.5
20180118053234 20 168 0.0 0.0 0.00 0.00 0.00 74 1034.6
20180118052204 20 167 0.0 0.0 0.00 0.00 0.00 73 1034.6
20180118051204 20 167 0.0 0.0 0.00 0.00 0.00 72 1034.6
20180118050204 20 168 0.0 0.0 0.00 0.00 0.00 72 1034.8
20180118045205 20 167 0.0 0.0 0.00 0.00 0.00 71 1034.7
20180118044204 20 167 0.0 0.0 0.00 0.00 0.00 71 1034.8
20180118043204 20 167 0.0 0.0 0.00 0.00 0.00 71 1034.9
20180118042204 20 168 0.0 0.0 0.00 0.00 0.00 70 1035.0
20180118041204 20 167 0.0 0.0 0.00 0.00 0.00 70 1035.1
20180118040204 20 168 0.0 0.0 0.00 0.00 0.00 69 1035.1
20180118035204 20 167 0.0 0.0 0.00 0.00 0.00 68 1035.2
20180118034204 20 167 0.0 0.0 0.00 0.00 0.00 68 1035.2
20180118033234 21 167 0.0 0.0 0.00 0.00 0.00 67 1035.3
20180118032204 21 167 0.0 0.0 0.00 0.00 0.00 66 1035.3
20180118031204 21 167 0.0 0.0 0.00 0.00 0.00 65 1035.4
20180118030204 21 167 0.0 0.0 0.00 0.00 0.00 65 1035.4
20180118025204 21 168 0.0 0.0 0.00 0.00 0.00 65 1035.4
20180118024205 21 167 0.0 0.0 0.00 0.00 0.00 65 1035.4
20180118023204 22 167 0.0 0.0 0.00 0.00 0.00 65 1035.3
20180118022204 22 168 0.0 0.0 0.00 0.00 0.00 64 1035.3
20180118021205 22 167 0.0 0.0 0.00 0.00 0.00 64 1035.4
20180118020204 22 167 0.0 0.0 0.00 0.00 0.00 63 1035.4
20180118015205 22 168 0.0 0.0 0.00 0.00 0.00 63 1035.4
20180118014204 23 168 0.0 0.0 0.00 0.00 0.00 63 1035.6
20180118013204 23 168 0.0 0.0 0.00 0.00 0.00 62 1035.7
20180118012204 23 168 0.0 0.0 0.00 0.00 0.00 60 1035.7
20180118011204 23 167 0.0 0.0 0.00 0.00 0.00 60 1035.8
20180118010205 24 167 0.0 0.0 0.00 0.00 0.00 59 1035.8
20180118005235 24 167 0.0 0.0 0.00 0.00 0.00 59 1035.9
20180118004205 24 167 0.0 0.0 0.00 0.00 0.00 59 1036.0
20180118003204 25 167 0.0 0.0 0.00 0.00 0.00 58 1035.9
20180118002204 25 167 0.0 0.0 0.00 0.00 0.00 57 1036.0
20180118001204 26 168 0.0 0.0 0.00 0.00 0.00 57 1036.0
20180118000204 26 167 0.0 0.0 0.00 0.00 0.00 57 1036.0
20180117235205 26 168 0.0 0.0 0.00 0.00 0.00 56 1036.0
20180117234235 27 167 0.0 0.0 0.00 0.00 0.00 56 1036.0
20180117233204 27 168 0.0 0.0 0.00 0.00 0.00 56 1036.1
20180117232205 27 167 0.0 0.0 0.00 0.00 0.00 55 1036.1
20180117231205 27 168 0.0 0.0 0.00 0.00 0.00 54 1036.2
20180117230205 28 168 0.0 0.0 0.00 0.00 0.00 53 1036.4
20180117225205 28 168 0.0 0.0 0.00 0.00 0.00 53 1036.5
20180117224205 28 167 0.0 0.0 0.00 0.00 0.00 53 1036.7
20180117223205 28 167 0.0 0.0 0.00 0.00 0.00 52 1036.7
20180117222235 29 261 0.0 0.0 0.00 0.00 0.00 52 1036.8
20180117221204 29 261 0.0 0.0 0.00 0.00 0.00 52 1037.0
20180117220205 29 217 0.0 0.0 0.00 0.00 0.00 53 1037.0
20180117215205 29 186 0.0 0.0 0.00 0.00 0.00 51 1037.0
20180117214205 29 234 0.0 0.0 0.00 0.00 0.00 53 1037.0
20180117213205 29 334 0.0 0.0 0.00 0.00 0.00 51 1037.0
20180117212205 29 338 0.0 0.0 0.00 0.00 0.00 49 1037.0
20180117211205 30 248 0.0 0.0 0.00 0.00 0.00 48 1037.0
20180117210205 31 246 0.0 0.0 0.00 0.00 0.00 50 1037.1
20180117205205 30 250 0.0 0.0 0.00 0.00 0.00 50 1037.3
20180117204205 30 252 0.0 0.0 0.00 0.00 0.00 50 1037.3
20180117203205 29 296 0.0 0.0 0.00 0.00 0.00 54 1037.5
20180117202205 28 306 0.0 0.0 0.00 0.00 0.00 53 1037.6
20180117201235 28 321 0.0 0.0 0.00 0.00 0.00 52 1037.7
20180117195205 27 317 0.0 0.0 0.00 0.00 0.00 53 1038.0
20180117194205 27 317 0.0 0.0 0.00 0.00 0.00 53 1038.1
20180117193205 26 333 0.0 0.0 0.00 0.00 0.00 56 1038.1
20180117192205 25 320 0.0 0.0 0.00 0.00 0.00 56 1038.2
20180117191205 25 9 0.0 0.0 0.00 0.00 0.00 58 1038.4
20180117190205 24 347 0.0 0.0 0.00 0.00 0.00 57 1038.5
20180117185205 24 313 0.0 0.0 0.00 0.00 0.00 58 1038.9
20180117184205 24 311 0.0 0.0 0.00 0.00 0.00 60 1039.0
20180117183205 23 338 0.0 0.0 0.00 0.00 0.00 61 1039.2
20180117182205 23 333 0.0 0.0 0.00 0.00 0.00 62 1039.4
20180117181205 22 336 0.0 0.0 0.00 0.00 0.00 64 1039.7
20180117180205 21 284 0.0 0.0 0.00 0.00 0.00 65 1040.0
20180117175205 20 284 0.0 0.0 0.00 0.00 0.00 65 1040.3
20180117174205 20 275 0.0 0.0 0.00 0.00 0.00 67 1040.6
20180117173205 20 268 0.0 0.0 0.00 0.00 0.00 68 1040.7
20180117172205 19 317 0.0 0.0 0.00 0.00 0.00 69 1040.9
20180117171205 18 298 0.0 0.0 0.00 0.00 0.00 69 1041.1
20180117170205 17 326 0.0 0.0 0.00 0.00 0.00 71 1041.3
20180117165206 17 300 0.0 0.0 0.00 0.00 0.00 72 1041.4
20180117164205 16 325 0.0 0.0 0.00 0.00 0.00 73 1041.5
20180117163205 16 334 0.0 0.0 0.00 0.00 0.00 76 1041.5
20180117162205 15 303 0.0 0.0 0.00 0.00 0.00 75 1041.5
20180117161206 15 328 0.0 0.0 0.00 0.00 0.00 76 1041.5
20180117160207 14 241 0.0 0.0 0.00 0.00 0.00 78 1041.5
20180117155205 14 329 0.0 0.0 0.00 0.00 0.00 79 1041.4
20180117153206 13 313 0.0 0.0 0.00 0.00 0.00 81 1041.3
20180117152206 13 285 0.0 0.0 0.00 0.00 0.00 82 1041.3
20180117151205 12 291 0.0 0.0 0.00 0.00 0.00 82 1041.3
20180117150205 12 317 0.0 0.0 0.00 0.00 0.00 83 1041.2
20180117145206 11 294 0.0 0.0 0.00 0.00 0.00 83 1041.1
20180117143205 10 340 0.0 0.0 0.00 0.00 0.00 82 1040.8
20180117142206 9 340 0.0 0.0 0.00 0.00 0.00 82 1040.7
20180117141206 9 340 0.0 0.0 0.00 0.00 0.00 82 1040.6
20180117140205 9 341 0.0 0.0 0.00 0.00 0.00 82 1040.6
20180117135206 9 341 0.0 0.0 0.00 0.00 0.00 81 1040.5
20180117134205 9 341 0.0 0.0 0.00 0.00 0.00 81 1040.5
20180117133206 9 341 0.0 0.0 0.00 0.00 0.00 81 1040.4
20180117132206 9 341 0.0 0.0 0.00 0.00 0.00 81 1040.5
20180117131206 9 341 0.0 0.0 0.00 0.00 0.00 81 1040.4
20180117130206 9 341 0.0 0.0 0.00 0.00 0.00 80 1040.3
20180117125206 9 341 0.0 0.0 0.00 0.00 0.00 80 1040.2
20180117123206 9 341 0.0 0.0 0.00 0.00 0.00 79 1040.3
20180117122206 9 341 0.0 0.0 0.00 0.00 0.00 78 1040.1
20180117121206 9 341 0.0 0.0 0.00 0.00 0.00 78 1040.1
20180117120206 9 341 0.0 0.0 0.00 0.00 0.00 76 1040.0
20180117115206 9 341 0.0 0.0 0.00 0.00 0.00 75 1040.0
20180117114206 9 341 0.0 0.0 0.00 0.00 0.00 75 1039.9
20180117113206 9 341 0.0 0.0 0.00 0.00 0.00 75 1039.8
20180117112206 9 341 0.0 0.0 0.00 0.00 0.00 76 1039.9
20180117111206 9 341 0.0 0.0 0.00 0.00 0.00 76 1039.9
20180117110206 9 341 0.0 0.0 0.00 0.00 0.00 75 1039.7
20180117105206 9 341 0.0 0.0 0.00 0.00 0.00 75 1039.7
20180117103206 9 349 0.0 0.0 0.00 0.00 0.00 74 1039.8
20180117102206 9 355 0.0 0.0 0.00 0.00 0.00 74 1039.8
20180117101206 9 360 0.0 0.0 0.00 0.00 0.00 75 1039.7
20180117100206 9 355 0.0 0.0 0.00 0.00 0.00 75 1039.7
20180117094206 9 355 0.0 0.0 0.00 0.00 0.00 74 1039.8
20180117093206 9 355 0.0 0.0 0.00 0.00 0.00 74 1039.9
20180117092206 9 355 0.0 0.0 0.00 0.00 0.00 74 1039.8
20180117091206 9 355 0.0 0.0 0.00 0.00 0.00 74 1039.8
20180117090206 9 355 0.0 0.0 0.00 0.00 0.00 73 1039.9
20180117085206 9 355 0.0 0.0 0.00 0.00 0.00 73 1039.9
20180117084206 9 350 0.0 0.0 0.00 0.00 0.00 73 1040.0
20180117083206 9 350 0.0 0.0 0.00 0.00 0.00 73 1040.0
20180117082206 9 350 0.0 0.0 0.00 0.00 0.00 73 1040.1
20180117081206 9 344 0.0 0.0 0.00 0.00 0.00 73 1040.2
20180117080206 9 344 0.0 0.0 0.00 0.00 0.00 73 1040.2
20180117075206 9 344 0.0 0.0 0.00 0.00 0.00 72 1040.1
20180117074206 9 345 0.0 0.0 0.00 0.00 0.00 72 1039.9
20180117073206 10 345 0.0 0.0 0.00 0.00 0.00 72 1039.9
20180117072207 10 355 0.0 0.0 0.00 0.00 0.00 72 1039.8
20180117071206 10 355 0.0 0.0 0.00 0.00 0.00 71 1039.9
20180117070206 10 355 0.0 0.0 0.00 0.00 0.00 71 1039.9
20180117065206 10 360 0.0 0.0 0.00 0.00 0.00 70 1039.8
20180117064206 10 342 0.0 0.0 0.00 0.00 0.00 70 1039.6
20180117063207 10 350 0.0 0.0 0.00 0.00 0.00 69 1039.6
20180117062206 11 349 0.0 0.0 0.00 0.00 0.00 68 1039.7
20180117061206 11 350 0.0 0.0 0.00 0.00 0.00 68 1039.5
20180117055206 11 337 0.0 0.0 0.00 0.00 0.00 67 1039.4
20180117054207 11 19 0.0 0.0 0.00 0.00 0.00 67 1039.4
20180117053207 11 19 0.0 0.0 0.00 0.00 0.00 68 1039.5
20180117052206 12 344 0.0 0.0 0.00 0.00 0.00 68 1039.8
20180117051207 12 345 0.0 0.0 0.00 0.00 0.00 67 1039.9
20180117050207 12 345 0.0 0.0 0.00 0.00 0.00 66 1040.1
20180117045207 12 345 0.0 0.0 0.00 0.00 0.00 66 1040.0
20180117044207 12 346 0.0 0.0 0.00 0.00 0.00 66 1040.0
20180117043207 13 344 0.0 0.0 0.00 0.00 0.00 65 1039.9
20180117041207 13 344 0.0 0.0 0.00 0.00 0.00 65 1040.1
20180117040207 13 344 0.0 0.0 0.00 0.00 0.00 64 1040.1
20180117035207 13 342 0.0 0.0 0.00 0.00 0.00 63 1040.0
20180117034207 14 344 0.0 0.0 0.00 0.00 0.00 63 1040.0
20180117033207 14 340 0.0 0.0 0.00 0.00 0.00 63 1039.9
20180117032207 14 346 0.0 0.0 0.00 0.00 0.00 62 1039.8
20180117031207 14 341 0.0 0.0 0.00 0.00 0.00 61 1039.6
20180117025207 14 342 0.0 0.0 0.00 0.00 0.00 60 1039.5
20180117024207 15 338 0.0 0.0 0.00 0.00 0.00 59 1039.4
20180117022207 15 338 0.0 0.0 0.00 0.00 0.00 58 1039.3
20180117021207 15 338 0.0 0.0 0.00 0.00 0.00 58 1039.3
20180117020207 15 337 0.0 0.0 0.00 0.00 0.00 57 1039.3
20180117015207 16 345 0.0 0.0 0.00 0.00 0.00 57 1039.1
20180117014207 16 299 0.0 0.0 0.00 0.00 0.00 56 1038.9
20180117012207 16 337 0.0 0.0 0.00 0.00 0.00 55 1038.9
20180117011207 17 338 0.0 0.0 0.00 0.00 0.00 55 1038.8
20180117010207 17 10 0.0 0.0 0.00 0.00 0.00 54 1038.6
20180117005207 17 335 0.0 0.0 0.00 0.00 0.00 54 1038.6
20180117003207 18 328 0.0 0.0 0.00 0.00 0.00 52 1038.4
20180117002207 18 321 0.0 0.0 0.00 0.00 0.00 51 1038.4
20180117001207 18 323 0.0 0.0 0.00 0.00 0.00 51 1038.2
20180117000207 18 325 0.0 0.0 0.00 0.00 0.00 50 1038.0
20180116235207 19 355 0.0 0.0 0.00 0.00 0.00 48 1038.0